Location: Huntsville
(41.2590°N, 111.7678°W)
Time: 19:31:34
(UTC+00:00)

Explorer 7 - Pass Details

Date: 21 June 2021
Orbit: 484 x 676 km, 50.3° (Epoch: 30 July)

Event Time Altitude Azimuth Distance (km) Brightness Sun altitude
Rises 09:42:05 0° 302° (WNW) 2,956 10.6 -18.3°
Reaches altitude 10° 09:44:28 10° 302° (WNW) 2,017 9.7 -18.1°
Maximum altitude 09:49:07 84° 215° (SW) 614 6.9 -17.6°
Drops below altitude 10° 09:53:27 10° 127° (SE) 1,887 9.5 -17.1°
Sets 09:55:38 0° 127° (SE) 2,749 10.4 -16.9°
